Weather History for Fort Leonard Wood, MO

Change the Weather History Date:

Monday, October 17, 2011

  Actual Average Record
Temperature  
Mean Temperature 56 °F -  
Max Temperature 67 °F 66 °F 84 °F (2005)
Min Temperature 45 °F 48 °F 30 °F (2001)
Degree Days  
Heating Degree Days 10    
Growing Degree Days 6 (Base 50)    
Moisture  
Dew Point 39 °F    
Average Humidity 58    
Maximum Humidity 93    
Minimum Humidity 35    
Precipitation  
Precipitation 0.00 in - - ()
Sea Level Pressure  
Sea Level Pressure 29.91 in    
Wind  
Wind Speed 7 mph (NE)    
Max Wind Speed 13 mph    
Max Gust Speed 20 mph    
Visibility 10 miles    
Events Rain    
Averages and records for this station are not official NWS values.
T = Trace of Precipitation, MM = Missing Value Source: NWS Daily Summary

Daily Weather History Graph

Daily Weather History Graph

Search for Another Location

Airport:

Trip Planner

Search our weather history database for the weather conditions in past years. The results will help you decide how hot, cold, wet, or windy it might be!

Date:

Astronomy

Oct. 17, 2011 Rise Set
Actual Time 7:18 AM CDT 6:28 PM CDT
Civil Twilight 6:52 AM CDT 6:55 PM CDT
Nautical Twilight 6:21 AM CDT 7:25 PM CDT
Astronomical Twilight 5:51 AM CDT 7:55 PM CDT
Moon 10:14 PM CDT (10/17) 12:20 PM CDT (10/17)
Length of Visible Light 12h 03m
Length of Day
11h 10m
Waning Gibbous, 74% of the Moon is Illuminated
Oct 17
Waning Gibbous
Oct 19
Last Quarter
Oct 26
New
Nov 2
First Quarter
Nov 10
Full

Hourly Weather History & Observations

Time (CDT) Temp. Windchill Dew Point Humidity Pressure Visibility Wind Dir Wind Speed Gust Speed Precip Events Conditions
12:55 AM 54.5 °F - 44.4 °F 69% 29.97 in 10.0 mi North 4.6 mph - N/A   Clear
1:55 AM 54.1 °F - 43.0 °F 66% 29.97 in 6.0 mi NNE 6.9 mph - N/A   Haze
2:55 AM 53.4 °F - 40.1 °F 61% 29.97 in 10.0 mi NE 3.5 mph - N/A   Partly Cloudy
3:55 AM 52.9 °F - 41.0 °F 64% 29.96 in 10.0 mi East 3.5 mph - N/A   Overcast
4:55 AM 52.3 °F - 39.4 °F 61% 29.96 in 10.0 mi NE 3.5 mph - N/A   Overcast
5:55 AM 50.9 °F - 39.6 °F 65% 29.96 in 10.0 mi ENE 3.5 mph - N/A   Scattered Clouds
6:55 AM 50.0 °F - 39.7 °F 68% 29.98 in 10.0 mi Calm Calm - N/A   Clear
7:55 AM 50.0 °F - 41.0 °F 71% 29.98 in 10.0 mi ENE 4.6 mph - N/A   Mostly Cloudy
8:55 AM 53.4 °F - 40.1 °F 61% 29.99 in 10.0 mi East 8.1 mph - N/A   Scattered Clouds
9:55 AM 58.5 °F - 39.2 °F 49% 29.97 in 10.0 mi East 9.2 mph - N/A   Scattered Clouds
10:55 AM 60.1 °F - 38.1 °F 44% 29.95 in 10.0 mi East 6.9 mph - N/A   Partly Cloudy
11:55 AM 63.1 °F - 37.4 °F 39% 29.92 in 10.0 mi East 6.9 mph - N/A   Partly Cloudy
12:55 PM 64.8 °F - 37.8 °F 37% 29.88 in 10.0 mi ESE 9.2 mph - N/A   Clear
1:55 PM 66.9 °F - 38.7 °F 35% 29.86 in 10.0 mi ENE 5.8 mph - N/A   Partly Cloudy
2:55 PM 66.2 °F - 40.1 °F 38% 29.84 in 10.0 mi East 5.8 mph - N/A   Mostly Cloudy
3:55 PM 66.4 °F - 41.0 °F 40% 29.82 in 10.0 mi East 8.1 mph - N/A   Overcast
4:55 PM 65.3 °F - 40.6 °F 40% 29.81 in 10.0 mi NE 11.5 mph - N/A   Scattered Clouds
5:55 PM 59.2 °F - 39.9 °F 49% 29.85 in 10.0 mi NNE 10.4 mph - N/A   Mostly Cloudy
6:55 PM 54.1 °F - 39.4 °F 57% 29.88 in 10.0 mi NE 12.7 mph - N/A   Scattered Clouds
7:55 PM 52.2 °F - 37.6 °F 58% 29.89 in 10.0 mi NE 11.5 mph - N/A   Scattered Clouds
8:55 PM 50.4 °F - 37.2 °F 61% 29.88 in 10.0 mi NNE 11.5 mph 19.6 mph N/A   Mostly Cloudy
9:55 PM 50.4 °F - 34.5 °F 55% 29.88 in 10.0 mi NNE 10.4 mph 19.6 mph N/A   Overcast
10:50 PM 50.0 °F - 33.8 °F 54% 29.89 in 10.0 mi North 11.5 mph - N/A Rain Light Rain
10:55 PM 49.8 °F - 35.1 °F 57% 29.89 in 10.0 mi NNE 11.5 mph - 0.00 in Rain Light Rain
11:10 PM 48.2 °F - 35.6 °F 62% 29.89 in 10.0 mi North 10.4 mph 19.6 mph N/A   Overcast
11:32 PM 48.2 °F - 39.2 °F 71% 29.91 in 10.0 mi NNW 12.7 mph 18.4 mph N/A Rain Light Rain
11:55 PM 45.9 °F 42.9 °F 43.5 °F 92% 29.91 in 10.0 mi North 5.8 mph 16.1 mph 0.00 in   Light Drizzle
11:59 PM 46.4 °F 44.3 °F 44.6 °F 93% 29.93 in 10.0 mi Variable 4.6 mph - N/A   Overcast